Content
SEND FEEDBACK

Daily
Averages
Monthly
Summary
United States of America

MONGAUP VALLEY, NEW YORK


Home > North America > United States > New York
Elevation: 1279 feet     Latitude: 41 40N     Longitude: 074 47W

WEATHER
 
SELECT A DAY
Number of Records: 443,161;   Date Range: 1/1/95 - 7/20/14
 
SHARE

PRINT THIS DATA

[ ← Previous Day ]
WEATHER ALMANAC - JANUARY 26, 2014
[ Next Day → ]
[ °C ]   °F
Weather ElementAverageHighLow
Temperature10.9 °F17.6 °F (10:35 pm)3.2 °F (6:15 am)
Dewpoint0.4 °F8.6 °F (12:35 am)-5.8 °F (6:15 am)
Humidity63.2 %79 % (12:35 am)45 % (11:55 am)
Barometer29.66 in29.75 in (10:15 am)29.42 in (12:35 am)
Wind Speed9 mph17.3 mph (1:55 am)
Wind Gust24.2 mph (1:55 am)
Weather ElementAverage
Visibility9.4 mi
Wind DirectionWSW (234.6 °)

Weather ElementTotal
Precipitation0.02 in
Heating Degree Days54.6 (Base 65)
Averaged from 71 records on January 26, 2014
WEATHER CONDITIONS BREAKOUT
WIND DIRECTION BREAKOUT
WEATHER BY HOUR - JANUARY 26, 2014
[ °C ]   °F
Local TimeTemperatureDewpointHumidityBarometerVisibilityWind DirectionWind SpeedGust SpeedPrecipitationEventsConditions
12:35 AM14.0 °F8.6 °F79 %29.42 in4.0 miNW (310°)15.0 mph19.6 mph0.01 inMostly Cloudy
12:55 AM14.0 °F6.8 °F73 %29.43 in7.0 miWNW (300°)12.7 mph21.9 mph0.01 inScattered Clouds
1:15 AM12.2 °F3.2 °F67 %29.44 in10.0 miWNW (290°)13.8 mph21.9 mphScattered Clouds
1:35 AM12.2 °F3.2 °F67 %29.45 in10.0 miWNW (300°)13.8 mph21.9 mphMostly Cloudy
1:55 AM10.4 °F3.2 °F73 %29.48 in10.0 miWNW (300°)17.3 mph24.2 mphMostly Cloudy
2:15 AM10.4 °F-0.4 °F62 %29.50 in10.0 miWNW (300°)12.7 mph20.7 mphScattered Clouds
2:35 AM10.4 °F1.4 °F67 %29.51 in10.0 miWNW (290°)12.7 mph17.3 mphOvercast
2:55 AM8.6 °F-0.4 °F67 %29.52 in10.0 miWNW (290°)15.0 mph20.7 mphScattered Clouds
3:15 AM8.6 °F-0.4 °F67 %29.54 in10.0 miWNW (290°)11.5 mph19.6 mphScattered Clouds
3:35 AM8.6 °F-0.4 °F67 %29.55 in10.0 miWNW (290°)11.5 mphMostly Cloudy
3:55 AM8.6 °F-2.2 °F62 %29.56 in10.0 miWNW (290°)11.5 mph18.4 mphPartly Cloudy
4:15 AM6.8 °F-2.2 °F67 %29.57 in10.0 miWest (280°)9.2 mph17.3 mphMostly Cloudy
4:35 AM6.8 °F-2.2 °F67 %29.59 in10.0 miWest (280°)8.1 mphScattered Clouds
4:55 AM6.8 °F-2.2 °F67 %29.59 in10.0 miWest (280°)6.9 mphClear
5:15 AM5.0 °F-2.2 °F72 %29.60 in10.0 miWest (270°)9.2 mphClear
5:35 AM5.0 °F-2.2 °F72 %29.60 in10.0 miWest (280°)10.4 mphClear
5:55 AM5.0 °F-2.2 °F72 %29.61 in10.0 miWest (280°)9.2 mphClear
6:15 AM3.2 °F-5.8 °F66 %29.62 in10.0 miWest (280°)6.9 mphClear
6:35 AM3.2 °F-4.0 °F72 %29.64 in10.0 miWest (270°)8.1 mphClear
6:55 AM3.2 °F-5.8 °F66 %29.65 in10.0 miWest (280°)11.5 mph17.3 mphClear
7:15 AM3.2 °F-5.8 °F66 %29.67 in10.0 miWest (280°)11.5 mph18.4 mphClear
7:35 AM3.2 °F-5.8 °F66 %29.67 in10.0 miWest (280°)10.4 mphClear
7:55 AM3.2 °F-5.8 °F66 %29.67 in10.0 miWest (280°)6.9 mphClear
8:15 AM5.0 °F-5.8 °F61 %29.69 in10.0 miWest (270°)6.9 mphClear
8:35 AM6.8 °F-5.8 °F56 %29.70 in10.0 miWest (280°)8.1 mphPartly Cloudy
8:55 AM6.8 °F-4.0 °F61 %29.73 in10.0 miWest (270°)9.2 mphMostly Cloudy
9:15 AM6.8 °F-2.2 °F67 %29.74 in10.0 miWest (260°)11.5 mph16.1 mphScattered Clouds
9:35 AM8.6 °F-2.2 °F62 %29.73 in10.0 miWest (260°)12.7 mph18.4 mphMostly Cloudy
9:55 AM8.6 °F-0.4 °F67 %29.74 in10.0 miWest (260°)13.8 mph20.7 mphOvercast
10:15 AM8.6 °F-4.0 °F57 %29.75 in10.0 miWest (260°)9.2 mph21.9 mphOvercast
10:35 AM10.4 °F-4.0 °F52 %29.75 in10.0 miWest (260°)16.1 mph23.0 mphScattered Clouds
10:55 AM10.4 °F-5.8 °F48 %29.75 in10.0 miWNW (290°)12.7 mph21.9 mphClear
11:15 AM10.4 °F-5.8 °F48 %29.74 in10.0 miWest (260°)15.0 mph21.9 mphClear
11:35 AM10.4 °F-5.8 °F48 %29.73 in10.0 miWest (260°)6.9 mph19.6 mphClear
11:55 AM12.2 °F-5.8 °F45 %29.73 in10.0 miWest (260°)11.5 mph20.7 mphClear
12:15 PM12.2 °F-5.8 °F45 %29.71 in10.0 miWest (270°)9.2 mphClear
12:35 PM12.2 °F-5.8 °F45 %29.71 in10.0 miWest (270°)10.4 mph16.1 mphClear
12:55 PM12.2 °F-5.8 °F45 %29.71 in10.0 miWest (270°)8.1 mphClear
1:15 PM12.2 °F-4.0 °F48 %29.69 in10.0 miWSW (240°)9.2 mphPartly Cloudy
1:35 PM12.2 °F-5.8 °F45 %29.71 in5.0 miSW (230°)9.2 mphScattered Clouds
1:55 PM12.2 °F-4.0 °F48 %29.71 in10.0 miWSW (240°)9.2 mphScattered Clouds
2:15 PM12.2 °F-2.2 °F53 %29.71 in10.0 miSW (230°)10.4 mphPartly Cloudy
2:35 PM12.2 °F-2.2 °F53 %29.72 in10.0 miSW (230°)6.9 mph16.1 mphMostly Cloudy
2:55 PM12.2 °F1.4 °F62 %29.71 in2.0 miSW (220°)4.6 mphOvercast
3:15 PM12.2 °F3.2 °F67 %29.71 in1.5 miSW (230°)6.9 mphOvercast
3:35 PM12.2 °F3.2 °F67 %29.71 in2.5 miSW (230°)6.9 mphMostly Cloudy
3:55 PM12.2 °F5.0 °F73 %29.71 in6.0 miSSW (200°)8.1 mphScattered Clouds
4:15 PM12.2 °F3.2 °F67 %29.71 in7.0 miSouth (180°)4.6 mphPartly Cloudy
4:35 PM12.2 °F3.2 °F67 %29.70 in10.0 miSSW (200°)6.9 mphMostly Cloudy
4:55 PM12.2 °F5.0 °F73 %29.72 in10.0 miSouth (180°)4.6 mphOvercast
5:15 PM12.2 °F5.0 °F73 %29.70 in10.0 miSouth (170°)8.1 mphOvercast
5:35 PM12.2 °F3.2 °F67 %29.70 in10.0 miSouth (190°)5.8 mphOvercast
5:55 PM12.2 °F3.2 °F67 %29.70 in10.0 miSSW (200°)8.1 mphOvercast
6:15 PM12.2 °F3.2 °F67 %29.70 in10.0 miSouth (190°)5.8 mphOvercast
6:35 PM12.2 °F3.2 °F67 %29.70 in10.0 miSouth (190°)8.1 mphOvercast
6:55 PM14.0 °F3.2 °F62 %29.71 in10.0 miSouth (180°)8.1 mphOvercast
7:15 PM14.0 °F3.2 °F62 %29.71 in10.0 miSouth (170°)8.1 mphOvercast
7:35 PM14.0 °F3.2 °F62 %29.71 in10.0 miSouth (170°)6.9 mphOvercast
7:55 PM14.0 °F3.2 °F62 %29.71 in10.0 miSouth (170°)9.2 mphOvercast
8:15 PM14.0 °F3.2 °F62 %29.71 in10.0 miSouth (180°)8.1 mphOvercast
8:35 PM14.0 °F5.0 °F67 %29.70 in10.0 miSSE (160°)6.9 mphOvercast
8:55 PM15.8 °F5.0 °F62 %29.71 in10.0 miSouth (170°)5.8 mphOvercast
9:15 PM15.8 °F5.0 °F62 %29.71 in10.0 miSouth (170°)5.8 mphOvercast
9:35 PM15.8 °F6.8 °F68 %29.72 in10.0 miCalmOvercast
9:55 PM15.8 °F6.8 °F68 %29.72 in10.0 miSSE (160°)5.8 mphOvercast
10:15 PM15.8 °F6.8 °F68 %29.72 in10.0 miSouth (170°)5.8 mphOvercast
10:35 PM17.6 °F8.6 °F68 %29.71 in10.0 miSouth (170°)8.1 mphOvercast
10:55 PM17.6 °F8.6 °F68 %29.70 in10.0 miSSE (160°)8.1 mphOvercast
11:15 PM17.6 °F8.6 °F68 %29.70 in10.0 miSouth (170°)6.9 mphOvercast
11:35 PM17.6 °F8.6 °F68 %29.70 in10.0 miSouth (180°)3.5 mphOvercast
11:55 PM17.6 °F8.6 °F68 %29.69 in10.0 miSE (140°)3.5 mphOvercast
Hourly data recorded from KMSV, located miles away from Mongaup Valley, New York







STORIES FROM OUR PARTNERS